Year,Month,Day,Hour,Minute,Value (Times are PST for temperature in C)
2010,02,01,00,00,6.90
2010,02,01,00,01,6.90
2010,02,01,00,02,6.90
2010,02,01,00,03,6.90
2010,02,01,00,04,6.90
2010,02,01,00,05,6.90
2010,02,01,00,06,6.90
2010,02,01,00,07,6.90
2010,02,01,00,08,6.80
2010,02,01,00,09,6.80
2010,02,01,00,10,6.80
2010,02,01,00,11,6.80
2010,02,01,00,12,6.80
2010,02,01,00,13,6.80
2010,02,01,00,14,6.80
2010,02,01,00,15,6.80
2010,02,01,00,16,6.80
2010,02,01,00,17,6.80
2010,02,01,00,18,6.80
2010,02,01,00,19,6.80
2010,02,01,00,20,6.80
2010,02,01,00,21,6.80
2010,02,01,00,22,6.80
2010,02,01,00,23,6.80
2010,02,01,00,24,6.80
2010,02,01,00,25,6.80
2010,02,01,00,26,6.80
2010,02,01,00,27,6.80
2010,02,01,00,28,6.80
2010,02,01,00,29,6.80
2010,02,01,00,30,6.80
2010,02,01,00,31,6.80
2010,02,01,00,32,6.80
2010,02,01,00,33,6.80
2010,02,01,00,34,6.80
2010,02,01,00,35,6.80
2010,02,01,00,36,6.80
2010,02,01,00,37,6.80
2010,02,01,00,38,6.80
2010,02,01,00,39,6.80
2010,02,01,00,40,6.80
2010,02,01,00,41,6.80
2010,02,01,00,42,6.80
2010,02,01,00,43,6.80
2010,02,01,00,44,6.80
2010,02,01,00,45,6.80
2010,02,01,00,46,6.80
2010,02,01,00,47,6.80
2010,02,01,00,48,6.80
2010,02,01,00,49,6.80
2010,02,01,00,50,6.80
2010,02,01,00,51,6.80
2010,02,01,00,52,6.80
2010,02,01,00,53,6.80
2010,02,01,00,54,6.80
2010,02,01,00,55,6.80
2010,02,01,00,56,6.80
2010,02,01,00,57,6.80
2010,02,01,00,58,6.80
2010,02,01,00,59,6.80
2010,02,01,01,00,6.80
2010,02,01,01,01,6.80
2010,02,01,01,02,6.80
2010,02,01,01,03,6.80
2010,02,01,01,04,6.80
2010,02,01,01,05,6.80
2010,02,01,01,06,6.80
2010,02,01,01,07,6.80
2010,02,01,01,08,6.80
2010,02,01,01,09,6.80
2010,02,01,01,10,6.80
2010,02,01,01,11,6.80
2010,02,01,01,12,6.80
2010,02,01,01,13,6.80
2010,02,01,01,14,6.80
2010,02,01,01,15,6.80
2010,02,01,01,16,6.80
2010,02,01,01,17,6.80
2010,02,01,01,18,6.80
2010,02,01,01,19,6.80
2010,02,01,01,20,6.80
2010,02,01,01,21,6.80
2010,02,01,01,22,6.80
2010,02,01,01,23,6.80
2010,02,01,01,24,6.80
2010,02,01,01,25,6.80
2010,02,01,01,26,6.80
2010,02,01,01,27,6.80
2010,02,01,01,28,6.80
2010,02,01,01,29,6.80
2010,02,01,01,30,6.80
2010,02,01,01,31,6.80
2010,02,01,01,32,6.90
2010,02,01,01,33,6.90
2010,02,01,01,34,6.90
2010,02,01,01,35,6.90
2010,02,01,01,36,6.90
2010,02,01,01,37,6.90
2010,02,01,01,38,6.90
2010,02,01,01,39,6.90
2010,02,01,01,40,6.90
2010,02,01,01,41,6.90
2010,02,01,01,42,6.90
2010,02,01,01,43,6.90
2010,02,01,01,44,6.90
2010,02,01,01,45,7.00
2010,02,01,01,46,7.00
2010,02,01,01,47,7.00
2010,02,01,01,48,7.00
2010,02,01,01,49,7.00
2010,02,01,01,50,7.00
2010,02,01,01,51,7.00
2010,02,01,01,52,7.00
2010,02,01,01,53,7.00
2010,02,01,01,54,7.00
2010,02,01,01,55,7.10
2010,02,01,01,56,7.10
2010,02,01,01,57,7.10
2010,02,01,01,58,7.10
2010,02,01,01,59,7.10
2010,02,01,02,00,7.10
2010,02,01,02,01,7.10
2010,02,01,02,02,7.10
2010,02,01,02,03,7.10
2010,02,01,02,04,7.10
2010,02,01,02,05,7.10
2010,02,01,02,06,7.10
2010,02,01,02,07,7.10
2010,02,01,02,08,7.10
2010,02,01,02,09,7.10
2010,02,01,02,10,7.10
2010,02,01,02,11,7.10
2010,02,01,02,12,7.10
2010,02,01,02,13,7.10
2010,02,01,02,14,7.10
2010,02,01,02,15,7.10
2010,02,01,02,16,7.10
2010,02,01,02,17,7.10
2010,02,01,02,18,7.10
2010,02,01,02,19,7.10
2010,02,01,02,20,7.20
2010,02,01,02,21,7.20
2010,02,01,02,22,7.20
2010,02,01,02,23,7.20
2010,02,01,02,24,7.20
2010,02,01,02,25,7.20
2010,02,01,02,26,7.20
2010,02,01,02,27,7.20
2010,02,01,02,28,7.20
2010,02,01,02,29,7.20
2010,02,01,02,30,7.20
2010,02,01,02,31,7.20
2010,02,01,02,32,7.20
2010,02,01,02,33,7.20
2010,02,01,02,34,7.20
2010,02,01,02,35,7.20
2010,02,01,02,36,7.20
2010,02,01,02,37,7.20
2010,02,01,02,38,7.20
2010,02,01,02,39,7.20
2010,02,01,02,40,7.20
2010,02,01,02,41,7.20
2010,02,01,02,42,7.20
2010,02,01,02,43,7.20
2010,02,01,02,44,7.20
2010,02,01,02,45,7.20
2010,02,01,02,46,7.20
2010,02,01,02,47,7.20
2010,02,01,02,48,7.20
2010,02,01,02,49,7.20
2010,02,01,02,50,7.20
2010,02,01,02,51,7.20
2010,02,01,02,52,7.20
2010,02,01,02,53,7.20
2010,02,01,02,54,7.20
2010,02,01,02,55,7.20
2010,02,01,02,56,7.20
2010,02,01,02,57,7.20
2010,02,01,02,58,7.20
2010,02,01,02,59,7.20
2010,02,01,03,00,7.20
2010,02,01,03,01,7.20
2010,02,01,03,02,7.30
2010,02,01,03,03,7.30
2010,02,01,03,04,7.30
2010,02,01,03,05,7.30
2010,02,01,03,06,7.30
2010,02,01,03,07,7.30
2010,02,01,03,08,7.30
2010,02,01,03,09,7.30
2010,02,01,03,10,7.30
2010,02,01,03,11,7.30
2010,02,01,03,12,7.30
2010,02,01,03,13,7.30
2010,02,01,03,14,7.30
2010,02,01,03,15,7.30
2010,02,01,03,16,7.30
2010,02,01,03,17,7.30
2010,02,01,03,18,7.30
2010,02,01,03,19,7.30
2010,02,01,03,20,7.30
2010,02,01,03,21,7.30
2010,02,01,03,22,7.30
2010,02,01,03,23,7.30
2010,02,01,03,24,7.30
2010,02,01,03,25,7.30
2010,02,01,03,26,7.30
2010,02,01,03,27,7.30
2010,02,01,03,28,7.30
2010,02,01,03,29,7.30
2010,02,01,03,30,7.30
2010,02,01,03,31,7.30
2010,02,01,03,32,7.30
2010,02,01,03,33,7.30
2010,02,01,03,34,7.30
2010,02,01,03,35,7.30
2010,02,01,03,36,7.30
2010,02,01,03,37,7.30
2010,02,01,03,38,7.30
2010,02,01,03,39,7.30
2010,02,01,03,40,7.30
2010,02,01,03,41,7.30
2010,02,01,03,42,7.30
2010,02,01,03,43,7.30
2010,02,01,03,44,7.30
2010,02,01,03,45,7.30
2010,02,01,03,46,7.30
2010,02,01,03,47,7.30
2010,02,01,03,48,7.30
2010,02,01,03,49,7.30
2010,02,01,03,50,7.30
2010,02,01,03,51,7.30
2010,02,01,03,52,7.30
2010,02,01,03,53,7.30
2010,02,01,03,54,7.30
2010,02,01,03,55,7.30
2010,02,01,03,56,7.30
2010,02,01,03,57,7.30
2010,02,01,03,58,7.30
2010,02,01,03,59,7.30
2010,02,01,04,00,7.30
2010,02,01,04,01,7.30
2010,02,01,04,02,7.30
2010,02,01,04,03,7.30
2010,02,01,04,04,7.30
2010,02,01,04,05,7.30
2010,02,01,04,06,7.30
2010,02,01,04,07,7.30
2010,02,01,04,08,7.30
2010,02,01,04,09,7.30
2010,02,01,04,10,7.30
2010,02,01,04,11,7.30
2010,02,01,04,12,7.30
2010,02,01,04,13,7.30
2010,02,01,04,14,7.30
2010,02,01,04,15,7.30
2010,02,01,04,16,7.30
2010,02,01,04,17,7.30
2010,02,01,04,18,7.30
2010,02,01,04,19,7.30
2010,02,01,04,20,7.30
2010,02,01,04,21,7.30
2010,02,01,04,22,7.30
2010,02,01,04,23,7.30
2010,02,01,04,24,7.30
2010,02,01,04,25,7.30
2010,02,01,04,26,7.30
2010,02,01,04,27,7.30
2010,02,01,04,28,7.30
2010,02,01,04,29,7.30
2010,02,01,04,30,7.30
2010,02,01,04,31,7.30
2010,02,01,09,03,7.00
2010,02,01,09,04,7.00
2010,02,01,09,05,7.00
2010,02,01,09,06,7.00
2010,02,01,09,07,7.00
2010,02,01,09,08,7.00
2010,02,01,09,09,7.00
2010,02,01,09,10,6.90
2010,02,01,09,11,6.90
2010,02,01,09,12,6.90
2010,02,01,09,13,6.90
2010,02,01,09,14,6.90
2010,02,01,09,15,6.90
2010,02,01,09,16,6.90
2010,02,01,09,17,6.90
2010,02,01,09,18,6.90
2010,02,01,09,19,6.90
2010,02,01,09,20,6.90
2010,02,01,09,21,6.90
2010,02,01,09,22,6.90
2010,02,01,09,23,7.00
2010,02,01,09,24,7.00
2010,02,01,09,25,7.00
2010,02,01,09,26,7.00
2010,02,01,09,27,7.00
2010,02,01,09,28,7.00
2010,02,01,09,29,7.00
2010,02,01,09,30,7.00
2010,02,01,09,31,7.00
2010,02,01,09,32,7.00
2010,02,01,09,33,7.00
2010,02,01,09,34,7.00
2010,02,01,09,35,7.00
2010,02,01,09,36,7.00
2010,02,01,09,37,7.00
2010,02,01,09,38,7.10
2010,02,01,09,39,7.10
2010,02,01,09,40,7.10
2010,02,01,09,41,7.10
2010,02,01,09,42,7.10
2010,02,01,09,43,7.10
2010,02,01,09,44,7.10
2010,02,01,09,45,7.10
2010,02,01,09,46,7.10
2010,02,01,09,47,7.10
2010,02,01,09,48,7.10
2010,02,01,09,49,7.10
2010,02,01,09,50,7.10
2010,02,01,09,51,7.10
2010,02,01,09,52,7.10
2010,02,01,09,53,7.10
2010,02,01,09,54,7.10
2010,02,01,09,55,7.10
2010,02,01,09,56,7.10
2010,02,01,09,57,7.10
2010,02,01,09,58,7.10
2010,02,01,09,59,7.10
2010,02,01,10,00,7.10
2010,02,01,10,01,7.10
2010,02,01,10,02,7.10
2010,02,01,10,03,7.10
2010,02,01,10,04,7.10
2010,02,01,10,05,7.10
2010,02,01,10,06,7.10
2010,02,01,10,07,7.10
2010,02,01,10,08,7.10
2010,02,01,10,09,7.10
2010,02,01,10,10,7.10
2010,02,01,10,11,7.10
2010,02,01,10,12,7.20
2010,02,01,10,13,7.20
2010,02,01,10,14,7.20
2010,02,01,10,15,7.20
2010,02,01,10,16,7.20
2010,02,01,10,17,7.20
2010,02,01,10,18,7.20
2010,02,01,10,19,7.20
2010,02,01,10,20,7.20
2010,02,01,10,21,7.20
2010,02,01,10,22,7.20
2010,02,01,10,23,7.20
2010,02,01,10,24,7.20
2010,02,01,10,25,7.30
2010,02,01,10,26,7.30
2010,02,01,10,27,7.30
2010,02,01,10,28,7.30
2010,02,01,10,29,7.30
2010,02,01,10,30,7.30
2010,02,01,10,31,7.30
2010,02,01,10,32,7.20
2010,02,01,10,33,7.20
2010,02,01,10,34,7.20
2010,02,01,10,35,7.30
2010,02,01,10,36,7.30
2010,02,01,10,37,7.30
2010,02,01,10,38,7.30
2010,02,01,10,39,7.30
2010,02,01,10,40,7.30
2010,02,01,10,41,7.30
2010,02,01,10,42,7.30
2010,02,01,10,43,7.30
2010,02,01,10,44,7.30
2010,02,01,10,45,7.30
2010,02,01,10,46,7.30
2010,02,01,10,47,7.30
2010,02,01,10,48,7.30
2010,02,01,10,49,7.30
2010,02,01,10,50,7.30
2010,02,01,10,51,7.30
2010,02,01,10,52,7.30
2010,02,01,10,53,7.30
2010,02,01,10,54,7.30
2010,02,01,10,55,7.30
2010,02,01,10,56,7.30
2010,02,01,10,57,7.30
2010,02,01,10,58,7.30
2010,02,01,10,59,7.30
2010,02,01,11,00,7.30
2010,02,01,11,01,7.30
2010,02,01,11,02,7.30
2010,02,01,11,03,7.30
2010,02,01,11,04,7.30
2010,02,01,11,05,7.30
2010,02,01,11,06,7.40
2010,02,01,11,07,7.30
2010,02,01,11,08,7.30
2010,02,01,11,09,7.30
2010,02,01,11,10,7.30
2010,02,01,11,11,7.30
2010,02,01,11,12,7.30
2010,02,01,11,13,7.30
2010,02,01,11,14,7.30
2010,02,01,11,15,7.30
2010,02,01,11,16,7.30
2010,02,01,11,17,7.40
2010,02,01,11,18,7.40
2010,02,01,11,19,7.40
2010,02,01,11,20,7.40
2010,02,01,11,21,7.40
2010,02,01,11,22,7.40
2010,02,01,11,23,7.40
2010,02,01,11,24,7.40
2010,02,01,11,25,7.40
2010,02,01,11,26,7.50
2010,02,01,11,27,7.50
2010,02,01,11,28,7.50
2010,02,01,11,29,7.50
2010,02,01,11,30,7.50
2010,02,01,11,31,7.50
2010,02,01,11,32,7.50
2010,02,01,11,33,7.50
2010,02,01,11,34,7.50
2010,02,01,11,35,7.50
2010,02,01,11,36,7.50
2010,02,01,11,37,7.50
2010,02,01,11,38,7.50
2010,02,01,11,39,7.50
2010,02,01,11,40,7.60
2010,02,01,11,41,7.60
2010,02,01,11,42,7.60
2010,02,01,11,43,7.60
2010,02,01,11,44,7.60
2010,02,01,11,45,7.70
2010,02,01,11,46,7.70
2010,02,01,11,47,7.70
2010,02,01,11,48,7.70
2010,02,01,11,49,7.70
2010,02,01,11,50,7.80
2010,02,01,11,51,7.80
2010,02,01,11,52,7.80
2010,02,01,11,53,7.80
2010,02,01,11,54,7.80
2010,02,01,11,55,7.80
2010,02,01,11,56,7.80
2010,02,01,11,57,7.80
2010,02,01,11,58,7.80
2010,02,01,11,59,7.80
2010,02,01,12,00,7.80
2010,02,01,12,01,7.80
2010,02,01,12,02,7.80
2010,02,01,12,03,7.80
2010,02,01,12,04,7.80
2010,02,01,12,05,7.90
2010,02,01,12,06,7.90
2010,02,01,12,07,7.90
2010,02,01,12,08,7.90
2010,02,01,12,09,7.90
2010,02,01,12,10,7.90
2010,02,01,12,11,7.90
2010,02,01,12,12,7.90
2010,02,01,12,13,7.90
2010,02,01,12,14,7.90
2010,02,01,12,15,8.00
2010,02,01,12,16,7.90
2010,02,01,12,17,7.90
2010,02,01,12,18,7.90
2010,02,01,12,19,7.90
2010,02,01,12,20,7.90
2010,02,01,12,21,7.90
2010,02,01,12,22,7.80
2010,02,01,12,23,7.90
2010,02,01,12,24,7.90
2010,02,01,12,25,7.90
2010,02,01,12,26,7.90
2010,02,01,12,27,7.90
2010,02,01,12,28,7.90
2010,02,01,12,29,7.90
2010,02,01,12,30,7.90
2010,02,01,12,31,7.90
2010,02,01,12,32,7.90
2010,02,01,12,33,7.90
2010,02,01,12,34,7.90
2010,02,01,12,35,7.90
2010,02,01,12,36,7.90
2010,02,01,12,37,7.80
2010,02,01,12,38,7.80
2010,02,01,12,39,7.80
2010,02,01,12,40,7.80
2010,02,01,12,41,7.80
2010,02,01,12,42,7.80
2010,02,01,12,43,7.80
2010,02,01,12,44,7.80
2010,02,01,12,45,7.80
2010,02,01,12,46,7.80
2010,02,01,12,47,7.80
2010,02,01,12,48,7.70
2010,02,01,12,49,7.70
2010,02,01,12,50,7.70
2010,02,01,12,51,7.70
2010,02,01,12,52,7.60
2010,02,01,12,53,7.60
2010,02,01,12,54,7.70
2010,02,01,12,55,7.70
2010,02,01,12,56,7.70
2010,02,01,12,57,7.70
2010,02,01,12,58,7.70
2010,02,01,12,59,7.70
2010,02,01,13,00,7.70
2010,02,01,13,01,7.80
2010,02,01,13,02,7.80
2010,02,01,13,03,7.80
2010,02,01,13,04,7.80
2010,02,01,13,05,7.80
2010,02,01,13,06,7.80
2010,02,01,13,07,7.80
2010,02,01,13,08,7.80
2010,02,01,13,09,7.80
2010,02,01,13,10,7.80
2010,02,01,13,11,7.70
2010,02,01,13,12,7.70
2010,02,01,13,13,7.70
2010,02,01,13,14,7.70
2010,02,01,13,15,7.70
2010,02,01,13,16,7.70
2010,02,01,13,17,7.70
2010,02,01,13,18,7.70
2010,02,01,13,19,7.70
2010,02,01,13,20,7.70
2010,02,01,13,21,7.80
2010,02,01,13,22,7.80
2010,02,01,13,23,7.80
2010,02,01,13,24,7.80
2010,02,01,13,25,7.80
2010,02,01,13,26,7.80
2010,02,01,13,27,7.80
2010,02,01,13,28,7.80
2010,02,01,13,29,7.70
2010,02,01,13,30,7.80
2010,02,01,13,31,7.80
2010,02,01,13,32,7.80
2010,02,01,13,33,7.80
2010,02,01,13,34,7.80
2010,02,01,13,35,7.80
2010,02,01,13,36,7.70
2010,02,01,13,37,7.70
2010,02,01,13,38,7.70
2010,02,01,13,39,7.70
2010,02,01,13,40,7.70
2010,02,01,13,41,7.70
2010,02,01,13,42,7.70
2010,02,01,13,43,7.70
2010,02,01,13,44,7.70
2010,02,01,13,45,7.70
2010,02,01,13,46,7.70
2010,02,01,13,47,7.70
2010,02,01,13,48,7.70
2010,02,01,13,49,7.70
2010,02,01,13,50,7.70
2010,02,01,13,51,7.70
2010,02,01,13,52,7.70
2010,02,01,13,53,7.70
2010,02,01,13,54,7.70
2010,02,01,13,55,7.70
2010,02,01,13,56,7.70
2010,02,01,13,57,7.80
2010,02,01,13,58,7.80
2010,02,01,13,59,7.80
2010,02,01,14,00,7.80
2010,02,01,14,01,7.80
2010,02,01,14,02,7.80
2010,02,01,14,03,7.80
2010,02,01,14,04,7.80
2010,02,01,14,05,7.80
2010,02,01,14,06,7.80
2010,02,01,14,07,7.80
2010,02,01,14,08,7.80
2010,02,01,14,09,7.80
2010,02,01,14,10,7.80
2010,02,01,14,11,7.80
2010,02,01,14,12,7.80
2010,02,01,14,13,7.80
2010,02,01,14,14,7.80
2010,02,01,14,15,7.80
2010,02,01,14,16,7.80
2010,02,01,14,17,7.80
2010,02,01,14,18,7.70
2010,02,01,14,19,7.80
2010,02,01,14,20,7.80
2010,02,01,14,21,7.80
2010,02,01,14,22,7.80
2010,02,01,14,23,7.70
2010,02,01,14,24,7.80
2010,02,01,14,25,7.80
2010,02,01,14,26,7.80
2010,02,01,14,27,7.80
2010,02,01,14,28,7.80
2010,02,01,14,29,7.80
2010,02,01,14,30,7.80
2010,02,01,14,31,7.80
2010,02,01,14,32,7.80
2010,02,01,14,33,7.80
2010,02,01,14,34,7.80
2010,02,01,14,35,7.80
2010,02,01,14,36,7.80
2010,02,01,14,37,7.80
2010,02,01,14,38,7.80
2010,02,01,14,39,7.80
2010,02,01,14,40,7.80
2010,02,01,14,41,7.80
2010,02,01,14,42,7.80
2010,02,01,14,43,7.80
2010,02,01,14,44,7.80
2010,02,01,14,45,7.80
2010,02,01,14,46,7.80
2010,02,01,14,47,7.70
2010,02,01,14,48,7.70
2010,02,01,14,49,7.70
2010,02,01,14,50,7.70
2010,02,01,14,51,7.80
2010,02,01,14,52,7.70
2010,02,01,14,53,7.70
2010,02,01,14,54,7.70
2010,02,01,14,55,7.70
2010,02,01,14,56,7.70
2010,02,01,14,57,7.70
2010,02,01,14,58,7.70
2010,02,01,14,59,7.70
2010,02,01,15,00,7.70
2010,02,01,15,01,7.70
2010,02,01,15,02,7.70
2010,02,01,15,03,7.60
2010,02,01,15,04,7.60
2010,02,01,15,05,7.60
2010,02,01,15,06,7.60
2010,02,01,15,07,7.60
2010,02,01,15,08,7.60
2010,02,01,15,09,7.60
2010,02,01,15,10,7.60
2010,02,01,15,11,7.60
2010,02,01,15,12,7.60
2010,02,01,15,13,7.60
2010,02,01,15,14,7.60
2010,02,01,15,15,7.60
2010,02,01,15,16,7.60
2010,02,01,15,17,7.60
2010,02,01,15,18,7.70
2010,02,01,15,19,7.70
2010,02,01,15,20,7.70
2010,02,01,15,21,7.70
2010,02,01,15,22,7.70
2010,02,01,15,23,7.70
2010,02,01,15,24,7.70
2010,02,01,15,25,7.70
2010,02,01,15,26,7.70
2010,02,01,15,27,7.70
2010,02,01,15,28,7.70
2010,02,01,15,29,7.70
2010,02,01,15,30,7.70
2010,02,01,15,31,7.70
2010,02,01,15,32,7.70
2010,02,01,15,33,7.70
2010,02,01,15,34,7.70
2010,02,01,15,35,7.60
2010,02,01,15,36,7.60
2010,02,01,15,37,7.60
2010,02,01,15,38,7.60
2010,02,01,15,39,7.60
2010,02,01,15,40,7.60
2010,02,01,15,41,7.60
2010,02,01,15,42,7.60
2010,02,01,15,43,7.60
2010,02,01,15,44,7.60
2010,02,01,15,45,7.60
2010,02,01,15,46,7.60
2010,02,01,15,47,7.60
2010,02,01,15,48,7.60
2010,02,01,15,49,7.60
2010,02,01,15,50,7.60
2010,02,01,15,51,7.60
2010,02,01,15,52,7.60
2010,02,01,15,53,7.60
2010,02,01,15,54,7.60
2010,02,01,15,55,7.60
2010,02,01,15,56,7.60
2010,02,01,15,57,7.60
2010,02,01,15,58,7.60
2010,02,01,15,59,7.60
2010,02,01,16,00,7.60
2010,02,01,16,01,7.60
2010,02,01,16,02,7.60
2010,02,01,16,03,7.60
2010,02,01,16,04,7.60
2010,02,01,16,05,7.60
2010,02,01,16,06,7.60
2010,02,01,16,07,7.60
2010,02,01,16,08,7.60
2010,02,01,16,09,7.60
2010,02,01,16,10,7.60
2010,02,01,16,11,7.60
2010,02,01,16,12,7.60
2010,02,01,16,13,7.60
2010,02,01,16,14,7.60
2010,02,01,16,15,7.60
2010,02,01,16,16,7.60
2010,02,01,16,17,7.50
2010,02,01,16,18,7.50
2010,02,01,16,19,7.50
2010,02,01,16,20,7.50
2010,02,01,16,21,7.50
2010,02,01,16,22,7.50
2010,02,01,16,23,7.50
2010,02,01,16,24,7.50
2010,02,01,16,25,7.50
2010,02,01,16,26,7.50
2010,02,01,16,27,7.50
2010,02,01,16,28,7.50
2010,02,01,16,29,7.50
2010,02,01,16,30,7.40
2010,02,01,16,31,7.40
2010,02,01,16,32,7.40
2010,02,01,16,33,7.40
2010,02,01,16,34,7.40
2010,02,01,16,35,7.40
2010,02,01,16,36,7.40
2010,02,01,16,37,7.40
2010,02,01,16,38,7.40
2010,02,01,16,39,7.40
2010,02,01,16,40,7.30
2010,02,01,16,41,7.30
2010,02,01,16,42,7.30
2010,02,01,16,43,7.30
2010,02,01,16,44,7.30
2010,02,01,16,45,7.30
2010,02,01,16,46,7.30
2010,02,01,16,47,7.30
2010,02,01,16,48,7.30
2010,02,01,16,49,7.30
2010,02,01,16,50,7.30
2010,02,01,16,51,7.30
2010,02,01,16,52,7.30
2010,02,01,16,53,7.30
2010,02,01,16,54,7.30
2010,02,01,16,55,7.30
2010,02,01,16,56,7.30
2010,02,01,16,57,7.30
2010,02,01,16,58,7.30
2010,02,01,16,59,7.30
2010,02,01,17,00,7.30
2010,02,01,17,01,7.30
2010,02,01,17,02,7.30
2010,02,01,17,03,7.30
2010,02,01,17,04,7.30
2010,02,01,17,05,7.30
2010,02,01,17,06,7.30
2010,02,01,17,07,7.30
2010,02,01,17,08,7.30
2010,02,01,17,09,7.30
2010,02,01,17,10,7.30
2010,02,01,17,11,7.30
2010,02,01,17,12,7.30
2010,02,01,17,13,7.30
2010,02,01,17,14,7.30
2010,02,01,17,15,7.30
2010,02,01,17,16,7.30
2010,02,01,17,17,7.30
2010,02,01,17,18,7.30
2010,02,01,17,19,7.30
2010,02,01,17,20,7.30
2010,02,01,17,21,7.30
2010,02,01,17,22,7.30
2010,02,01,17,23,7.30
2010,02,01,17,24,7.30
2010,02,01,17,25,7.30
2010,02,01,17,26,7.30
2010,02,01,17,27,7.30
2010,02,01,17,28,7.30
2010,02,01,17,29,7.30
2010,02,01,17,30,7.30
2010,02,01,17,31,7.30
2010,02,01,17,32,7.30
2010,02,01,17,33,7.30
2010,02,01,17,34,7.30
2010,02,01,17,35,7.30
2010,02,01,17,36,7.30
2010,02,01,17,37,7.30
2010,02,01,17,38,7.30
2010,02,01,17,39,7.30
2010,02,01,17,40,7.30
2010,02,01,17,41,7.20
2010,02,01,17,42,7.30
2010,02,01,17,43,7.30
2010,02,01,17,44,7.30
2010,02,01,17,45,7.30
2010,02,01,17,46,7.30
2010,02,01,17,47,7.30
2010,02,01,17,48,7.30
2010,02,01,17,49,7.30
2010,02,01,17,50,7.30
2010,02,01,17,51,7.30
2010,02,01,17,52,7.30
2010,02,01,17,53,7.30
2010,02,01,17,54,7.30
2010,02,01,17,55,7.30
2010,02,01,17,56,7.30
2010,02,01,17,57,7.30
2010,02,01,17,58,7.30
2010,02,01,17,59,7.30
2010,02,01,18,00,7.30
2010,02,01,18,01,7.30
2010,02,01,18,02,7.30
2010,02,01,18,03,7.30
2010,02,01,18,04,7.30
2010,02,01,18,05,7.30
2010,02,01,18,06,7.30
2010,02,01,18,07,7.30
2010,02,01,18,08,7.30
2010,02,01,18,09,7.30
2010,02,01,18,10,7.30
2010,02,01,18,11,7.20
2010,02,01,18,12,7.20
2010,02,01,18,13,7.20
2010,02,01,18,14,7.20
2010,02,01,18,15,7.20
2010,02,01,18,16,7.20
2010,02,01,18,17,7.20
2010,02,01,18,18,7.20
2010,02,01,18,19,7.20
2010,02,01,18,20,7.20
2010,02,01,18,21,7.20
2010,02,01,18,22,7.20
2010,02,01,18,23,7.20
2010,02,01,18,24,7.20
2010,02,01,18,25,7.20
2010,02,01,18,26,7.20
2010,02,01,18,27,7.20
2010,02,01,18,28,7.20
2010,02,01,18,29,7.20
2010,02,01,18,30,7.20
2010,02,01,18,31,7.20
2010,02,01,18,32,7.20
2010,02,01,18,33,7.20
2010,02,01,18,34,7.20
2010,02,01,18,35,7.20
2010,02,01,18,36,7.20
2010,02,01,18,37,7.20
2010,02,01,18,38,7.20
2010,02,01,18,39,7.20
2010,02,01,18,40,7.20
2010,02,01,18,41,7.20
2010,02,01,18,42,7.30
2010,02,01,18,43,7.30
2010,02,01,18,44,7.30
2010,02,01,18,45,7.30
2010,02,01,18,46,7.30
2010,02,01,18,47,7.30
2010,02,01,18,48,7.30
2010,02,01,18,49,7.30
2010,02,01,18,50,7.30
2010,02,01,18,51,7.30
2010,02,01,18,52,7.30
2010,02,01,18,53,7.30
2010,02,01,18,54,7.30
2010,02,01,18,55,7.30
2010,02,01,18,56,7.30
2010,02,01,18,57,7.30
2010,02,01,18,58,7.30
2010,02,01,18,59,7.30
2010,02,01,19,00,7.30
2010,02,01,19,01,7.30
2010,02,01,19,02,7.30
2010,02,01,19,03,7.30
2010,02,01,19,04,7.30
2010,02,01,19,05,7.30
2010,02,01,19,06,7.30
2010,02,01,19,07,7.30
2010,02,01,19,08,7.30
2010,02,01,19,09,7.30
2010,02,01,19,10,7.30
2010,02,01,19,11,7.30
2010,02,01,19,12,7.30
2010,02,01,19,13,7.30
2010,02,01,19,14,7.30
2010,02,01,19,15,7.30
2010,02,01,19,16,7.30
2010,02,01,19,17,7.30
2010,02,01,19,18,7.30
2010,02,01,19,19,7.30
2010,02,01,19,20,7.30
2010,02,01,19,21,7.30
2010,02,01,19,22,7.20
2010,02,01,19,23,7.20
2010,02,01,19,24,7.20
2010,02,01,19,25,7.20
2010,02,01,19,26,7.20
2010,02,01,19,27,7.20
2010,02,01,19,28,7.20
2010,02,01,19,29,7.20
2010,02,01,19,30,7.20
2010,02,01,19,31,7.20
2010,02,01,19,32,7.20
2010,02,01,19,33,7.20
2010,02,01,19,34,7.20
2010,02,01,19,35,7.20
2010,02,01,19,36,7.20
2010,02,01,19,37,7.20
2010,02,01,19,38,7.20
2010,02,01,19,39,7.20
2010,02,01,19,40,7.20
2010,02,01,19,41,7.20
2010,02,01,19,42,7.20
2010,02,01,19,43,7.20
2010,02,01,19,44,7.20
2010,02,01,19,45,7.20
2010,02,01,19,46,7.20
2010,02,01,19,47,7.20
2010,02,01,19,48,7.20
2010,02,01,19,49,7.20
2010,02,01,19,50,7.20
2010,02,01,19,51,7.20
2010,02,01,19,52,7.20
2010,02,01,19,53,7.20
2010,02,01,19,54,7.20
2010,02,01,19,55,7.20
2010,02,01,19,56,7.20
2010,02,01,19,57,7.20
2010,02,01,19,58,7.20
2010,02,01,19,59,7.20
2010,02,01,20,00,7.20
2010,02,01,20,01,7.20
2010,02,01,20,02,7.20
2010,02,01,20,03,7.20
2010,02,01,20,04,7.20
2010,02,01,20,05,7.20
2010,02,01,20,06,7.20
2010,02,01,20,07,7.20
2010,02,01,20,08,7.20
2010,02,01,20,09,7.20
2010,02,01,20,10,7.20
2010,02,01,20,11,7.20
2010,02,01,20,12,7.20
2010,02,01,20,13,7.20
2010,02,01,20,14,7.20
2010,02,01,20,15,7.20
2010,02,01,20,16,7.20
2010,02,01,20,17,7.20
2010,02,01,20,18,7.20
2010,02,01,20,19,7.20
2010,02,01,20,20,7.20
2010,02,01,20,21,7.20
2010,02,01,20,22,7.20
2010,02,01,20,23,7.20
2010,02,01,20,24,7.20
2010,02,01,20,25,7.20
2010,02,01,20,26,7.20
2010,02,01,20,27,7.10
2010,02,01,20,28,7.10
2010,02,01,20,29,7.10
2010,02,01,20,30,7.10
2010,02,01,20,31,7.10
2010,02,01,20,32,7.10
2010,02,01,20,33,7.10
2010,02,01,20,34,7.10
2010,02,01,20,35,7.10
2010,02,01,20,36,7.10
2010,02,01,20,37,7.10
2010,02,01,20,38,7.10
2010,02,01,20,39,7.10
2010,02,01,20,40,7.10
2010,02,01,20,41,7.10
2010,02,01,20,42,7.10
2010,02,01,20,43,7.10
2010,02,01,20,44,7.10
2010,02,01,20,45,7.10
2010,02,01,20,46,7.10
2010,02,01,20,47,7.10
2010,02,01,20,48,7.10
2010,02,01,20,49,7.10
2010,02,01,20,50,7.10
2010,02,01,20,51,7.00
2010,02,01,20,52,7.00
2010,02,01,20,53,7.00
2010,02,01,20,54,7.00
2010,02,01,20,55,7.00
2010,02,01,20,56,7.00
2010,02,01,20,57,7.00
2010,02,01,20,58,7.00
2010,02,01,20,59,7.00
2010,02,01,21,00,7.00
2010,02,01,21,01,7.00
2010,02,01,21,02,7.00
2010,02,01,21,03,7.00
2010,02,01,21,04,7.00
2010,02,01,21,05,7.00
2010,02,01,21,06,7.00
2010,02,01,21,07,7.00
2010,02,01,21,08,7.00
2010,02,01,21,09,7.10
2010,02,01,21,10,7.10
2010,02,01,21,11,7.10
2010,02,01,21,12,7.10
2010,02,01,21,13,7.10
2010,02,01,21,14,7.10
2010,02,01,21,15,7.10
2010,02,01,21,16,7.10
2010,02,01,21,17,7.10
2010,02,01,21,18,7.10
2010,02,01,21,19,7.10
2010,02,01,21,20,7.10
2010,02,01,21,21,7.10
2010,02,01,21,22,7.10
2010,02,01,21,23,7.10
2010,02,01,21,24,7.10
2010,02,01,21,25,7.10
2010,02,01,21,26,7.10
2010,02,01,21,27,7.10
2010,02,01,21,28,7.10
2010,02,01,21,29,7.10
2010,02,01,21,30,7.10
2010,02,01,21,31,7.10
2010,02,01,21,32,7.10
2010,02,01,21,33,7.10
2010,02,01,21,34,7.10
2010,02,01,21,35,7.10
2010,02,01,21,36,7.10
2010,02,01,21,37,7.20
2010,02,01,21,38,7.20
2010,02,01,21,39,7.20
2010,02,01,21,40,7.20
2010,02,01,21,41,7.20
2010,02,01,21,42,7.20
2010,02,01,21,43,7.20
2010,02,01,21,44,7.20
2010,02,01,21,45,7.20
2010,02,01,21,46,7.20
2010,02,01,21,47,7.20
2010,02,01,21,48,7.20
2010,02,01,21,49,7.20
2010,02,01,21,50,7.20
2010,02,01,21,51,7.20
2010,02,01,21,52,7.20
2010,02,01,21,53,7.20
2010,02,01,21,54,7.20
2010,02,01,21,55,7.20
2010,02,01,21,56,7.20
2010,02,01,21,57,7.20
2010,02,01,21,58,7.20
2010,02,01,21,59,7.20
2010,02,01,22,00,7.20
2010,02,01,22,01,7.20
2010,02,01,22,02,7.20
2010,02,01,22,03,7.20
2010,02,01,22,04,7.20
2010,02,01,22,05,7.20
2010,02,01,22,06,7.20
2010,02,01,22,07,7.20
2010,02,01,22,08,7.20
2010,02,01,22,09,7.20
2010,02,01,22,10,7.20
2010,02,01,22,11,7.20
2010,02,01,22,12,7.20
2010,02,01,22,13,7.20
2010,02,01,22,14,7.20
2010,02,01,22,15,7.20
2010,02,01,22,16,7.20
2010,02,01,22,17,7.20
2010,02,01,22,18,7.20
2010,02,01,22,19,7.20
2010,02,01,22,20,7.20
2010,02,01,22,21,7.20
2010,02,01,22,22,7.20
2010,02,01,22,23,7.20
2010,02,01,22,24,7.20
2010,02,01,22,25,7.30
2010,02,01,22,26,7.30
2010,02,01,22,27,7.30
2010,02,01,22,28,7.30
2010,02,01,22,29,7.30
2010,02,01,22,30,7.30
2010,02,01,22,31,7.20
2010,02,01,22,32,7.20
2010,02,01,22,33,7.20
2010,02,01,22,34,7.20
2010,02,01,22,35,7.20
2010,02,01,22,36,7.20
2010,02,01,22,37,7.20